Date String (YYYY-MM-DD hh:mm:ss) UTC,Instrument flags,Ambient pressure (hPa),Sample flow (lpm),Bypass flow (lpm),Sample temperature (°C),Ambient temperature (°C),ASC tube jacket temperature (°C),LED temperature (°C),Box temperature (°C),Sample RH (%),Span deviation,Mass concentration (μg/m³),Mass concentration (μg/m³),Mass concentration (μg/m³)
DateTimeUTC,F1_M11,P_M11,Q1_M11,Q2_M11,T1_M11,T2_M11,T3_M11,T4_M11,T5_M11,U1_M11,ZSPAN_M11,X0_M11,X2_M11,X1_M11
2023-05-14 20:00:00,,0841.8,5.00,0.00,29.2,27.6,00.0,37.7,30.8,28.1,0000.0,0002.71,0002.53,0002.36
2023-05-14 20:01:00,,0841.8,5.00,0.00,29.2,27.6,00.0,37.7,30.8,27.8,0000.0,0002.70,0002.47,0002.31
2023-05-14 20:02:00,,0841.8,4.99,0.00,29.2,27.6,00.0,37.7,30.8,27.7,0000.0,0002.67,0002.40,0002.23
2023-05-14 20:03:00,,0841.8,5.00,0.00,29.2,27.6,00.0,37.7,30.8,27.1,0000.0,0002.68,0002.36,0002.17
2023-05-14 20:04:00,,0841.8,5.00,0.00,29.2,27.6,00.0,37.7,30.8,27.0,0000.0,0002.67,0002.33,0002.13
2023-05-14 20:05:00,,0841.8,5.00,0.00,29.2,27.6,00.0,37.6,30.8,27.4,0000.0,0002.61,0002.26,0002.06
2023-05-14 20:06:00,,0841.7,5.00,0.00,29.2,27.7,00.0,37.6,30.8,27.5,0000.0,0002.62,0002.20,0001.99
2023-05-14 20:07:00,,0841.7,5.00,0.00,29.2,27.7,00.0,37.6,30.8,27.0,0000.0,0002.60,0002.15,0001.92
2023-05-14 20:08:00,,0841.7,5.00,0.00,29.3,27.7,00.0,37.6,30.8,27.3,0000.0,0002.53,0002.08,0001.85
2023-05-14 20:09:00,,0841.7,5.00,0.00,29.3,27.7,00.0,37.6,30.9,27.8,0000.0,0002.41,0001.99,0001.79
2023-05-14 20:10:00,,0841.7,5.00,0.00,29.3,27.7,00.0,37.7,30.9,27.3,0000.0,0002.39,0001.94,0001.73
2023-05-14 20:11:00,,0841.7,5.00,0.00,29.3,27.8,00.0,37.7,30.9,26.8,0000.0,0002.43,0001.91,0001.68
2023-05-14 20:12:00,,0841.7,5.01,0.00,29.3,27.8,00.0,37.7,30.9,26.4,0000.0,0002.46,0001.89,0001.63
2023-05-14 20:13:00,,0841.7,5.00,0.00,29.3,27.8,00.0,37.7,30.9,26.6,0000.0,0002.36,0001.85,0001.61
2023-05-14 20:14:00,,0841.7,5.01,0.00,29.3,27.8,00.0,37.7,30.9,26.5,0000.0,0002.23,0001.79,0001.59
2023-05-14 20:15:00,,0841.7,5.00,0.00,29.3,27.8,00.0,37.7,30.9,26.9,0000.0,0002.10,0001.71,0001.54
2023-05-14 20:16:00,,0841.7,5.01,0.00,29.3,27.9,00.0,37.7,30.9,26.8,0000.0,0002.05,0001.70,0001.55
2023-05-14 20:17:00,,0841.7,5.00,0.00,29.3,27.9,00.0,37.7,30.9,27.4,0000.0,0002.00,0001.70,0001.56
2023-05-14 20:18:00,,0841.7,5.00,0.00,29.3,27.8,00.0,37.7,30.9,27.3,0000.0,0001.99,0001.71,0001.59
2023-05-14 20:19:00,,0841.6,5.00,0.00,29.3,27.8,00.0,37.7,30.9,27.2,0000.0,0002.32,0001.75,0001.62
2023-05-14 20:20:00,,0841.6,5.00,0.00,29.3,27.8,00.0,37.7,30.9,27.5,0000.0,0003.26,0001.76,0001.63
2023-05-14 20:21:00,,0841.6,5.00,0.00,29.3,27.8,00.0,37.7,30.9,27.4,0000.0,0003.30,0001.79,0001.65
2023-05-14 20:22:00,,0841.6,5.00,0.00,29.3,27.8,00.0,37.7,30.9,27.7,0000.0,0003.27,0001.79,0001.66
2023-05-14 20:23:00,,0841.6,5.00,0.00,29.4,27.8,00.0,37.7,31.0,27.0,0000.0,0003.14,0001.79,0001.69
2023-05-14 20:24:00,,0841.6,5.00,0.00,29.4,27.8,00.0,37.7,31.0,26.6,0000.0,0003.25,0001.84,0001.70
2023-05-14 20:25:00,,0841.6,5.00,0.00,29.4,27.8,00.0,37.7,31.0,26.1,0000.0,0003.24,0001.82,0001.69
2023-05-14 20:26:00,,0841.6,5.00,0.00,29.4,27.9,00.0,37.7,31.0,26.4,0000.0,0003.27,0001.83,0001.69
2023-05-14 20:27:00,,0841.6,5.00,0.00,29.4,27.9,00.0,37.7,31.0,26.7,0000.0,0003.32,0001.85,0001.68
2023-05-14 20:28:00,,0841.6,5.00,0.00,29.4,27.9,00.0,37.7,31.0,26.7,0000.0,0003.33,0001.84,0001.68
2023-05-14 20:29:00,,0841.6,4.99,0.00,29.4,27.9,00.0,37.7,31.0,26.9,0000.0,0003.33,0001.83,0001.66
2023-05-14 20:30:00,,0841.6,4.99,0.00,29.4,28.0,00.0,37.7,31.0,27.2,0000.0,0003.04,0001.79,0001.63
2023-05-14 20:31:00,,0841.6,4.99,0.00,29.4,28.0,00.0,37.8,31.0,26.5,0000.0,0002.09,0001.77,0001.61
2023-05-14 20:32:00,,0841.6,5.00,0.00,29.5,28.0,00.0,37.8,31.1,26.1,0000.0,0002.02,0001.72,0001.57
2023-05-14 20:33:00,,0841.6,5.02,0.00,29.5,28.0,00.0,37.8,31.1,25.8,0000.0,0001.96,0001.65,0001.50
2023-05-14 20:34:00,,0841.6,5.01,0.00,29.5,28.0,00.0,37.8,31.1,25.5,0000.0,0001.90,0001.58,0001.43
2023-05-14 20:35:00,,0841.6,4.99,0.00,29.5,28.1,00.0,37.8,31.1,25.9,0000.0,0001.79,0001.51,0001.39
2023-05-14 20:36:00,,0841.7,4.99,0.00,29.5,28.1,00.0,37.8,31.1,26.4,0000.0,0001.81,0001.52,0001.38
2023-05-14 20:37:00,,0841.6,5.00,0.00,29.5,28.1,00.0,37.8,31.1,26.4,0000.0,0001.79,0001.50,0001.37
2023-05-14 20:38:00,,0841.6,5.00,0.00,29.5,28.1,00.0,37.8,31.1,26.1,0000.0,0002.48,0001.47,0001.35
2023-05-14 20:39:00,,0841.6,5.00,0.00,29.5,28.1,00.0,37.8,31.1,26.1,0000.0,0002.71,0001.42,0001.31
2023-05-14 20:40:00,,0841.6,5.00,0.00,29.6,28.1,00.0,37.9,31.1,26.4,0000.0,0002.67,0001.36,0001.26
2023-05-14 20:41:00,,0841.6,5.00,0.00,29.6,28.1,00.0,37.9,31.2,25.5,0000.0,0002.58,0001.29,0001.19
2023-05-14 20:42:00,,0841.7,5.00,0.00,29.6,28.1,00.0,37.9,31.1,25.3,0000.0,0002.59,0001.23,0001.13
2023-05-14 20:43:00,,0841.6,5.01,0.00,29.6,28.2,00.0,37.9,31.2,25.1,0000.0,0002.64,0001.21,0001.09
2023-05-14 20:44:00,,0841.6,5.00,0.00,29.6,28.2,00.0,37.9,31.2,24.8,0000.0,0002.62,0001.20,0001.08
2023-05-14 20:45:00,,0841.6,5.01,0.00,29.6,28.2,00.0,37.9,31.2,25.0,0000.0,0002.67,0001.19,0001.05
2023-05-14 20:46:00,,0841.6,4.98,0.00,29.6,28.2,00.0,37.9,31.2,25.1,0000.0,0002.61,0001.13,0001.00
2023-05-14 20:47:00,,0841.6,5.00,0.00,29.6,28.2,00.0,37.9,31.2,25.6,0000.0,0002.58,0001.09,0000.95
2023-05-14 20:48:00,,0841.7,5.01,0.00,29.6,28.2,00.0,37.9,31.2,25.2,0000.0,0002.57,0001.07,0000.92
2023-05-14 20:49:00,,0841.6,5.00,0.00,29.7,28.2,00.0,37.9,31.2,25.3,0000.0,0001.82,0001.04,0000.88
2023-05-14 20:50:00,,0841.6,4.98,0.00,29.7,28.3,00.0,38.0,31.3,26.0,0000.0,0001.68,0001.03,0000.84
2023-05-14 20:51:00,,0841.6,5.00,0.00,29.7,28.3,00.0,38.0,31.3,26.3,0000.0,0001.63,0001.01,0000.83
2023-05-14 20:52:00,,0841.7,5.00,0.00,29.7,28.3,00.0,38.0,31.3,25.8,0000.0,0001.64,0001.03,0000.86
2023-05-14 20:53:00,,0841.6,5.00,0.00,29.7,28.3,00.0,38.0,31.3,25.8,0000.0,0001.61,0001.05,0000.88
2023-05-14 20:54:00,,0841.6,5.01,0.00,29.7,28.3,00.0,38.0,31.3,25.5,0000.0,0001.68,0001.10,0000.89
2023-05-14 20:55:00,,0841.6,5.00,0.00,29.7,28.3,00.0,38.0,31.3,25.1,0000.0,0001.73,0001.12,0000.89
2023-05-14 20:56:00,,0841.6,5.00,0.00,29.8,28.3,00.0,38.0,31.3,25.4,0000.0,0001.72,0001.15,0000.92
2023-05-14 20:57:00,,0841.6,5.00,0.00,29.8,28.4,00.0,38.0,31.4,25.8,0000.0,0001.77,0001.19,0000.94
2023-05-14 20:58:00,,0841.6,5.00,0.00,29.8,28.4,00.0,38.1,31.4,26.0,0000.0,0001.74,0001.18,0000.96
2023-05-14 20:59:00,,0841.6,4.99,0.00,29.8,28.4,00.0,38.1,31.4,25.6,0000.0,0001.71,0001.17,0000.96
